Overview Statistics Trail Chart Weather Telemetry Raw packets
 

This is the latest recevied weather packets stored in our database for station/object K5MGY. If no packets are shown the sender has not sent any weather packets the latest 10 day(s).

<< 108 109 110 111 112 113 114 >>
Time Temp. Humidity Pressure Rain* Wind** Luminosity Snow
1787787154 37.22° C 40% 1036.3 hPa 0 mm - 36 W/m² -
1787786854 37.22° C 41% 1036.2 hPa 0 mm - 42 W/m² -
1787786549 37.22° C 41% 1036 hPa 0 mm - 70 W/m² -
1787786245 36.67° C 41% 1035.9 hPa 0 mm - 71 W/m² -
1787785940 37.22° C 41% 1036 hPa 0 mm - 64 W/m² -
1787785635 37.22° C 40% 1036 hPa 0 mm - 55 W/m² -
1787785335 37.78° C 40% 1035.7 hPa 0 mm - 48 W/m² -
1787785034 37.78° C 39% 1035.8 hPa 0 mm - 52 W/m² -
1787784729 37.78° C 40% 1035.7 hPa 0 mm - 51 W/m² -
1787784428 37.78° C 40% 1035.9 hPa 0 mm - 51 W/m² -
1787784128 37.78° C 40% 1036 hPa 0 mm - 54 W/m² -
1787783824 37.78° C 41% 1036.2 hPa 0 mm - 59 W/m² -
1787783519 37.78° C 41% 1036.3 hPa 0 mm - 59 W/m² -
1787783215 37.78° C 40% 1036.4 hPa 0 mm - 61 W/m² -
1787782910 37.22° C 41% 1036.7 hPa 0 mm - 64 W/m² -
1787782609 37.22° C 41% 1036.7 hPa 0 mm - 69 W/m² -
1787782304 37.22° C 42% 1037 hPa 0 mm - 74 W/m² -
1787782001 37.22° C 41% 1036.7 hPa 0 mm - 75 W/m² -
1787781700 37.22° C 41% 1037.1 hPa 0 mm - 66 W/m² -
1787781398 37.78° C 41% 1036.9 hPa 0 mm - 75 W/m² -
1787781098 37.78° C 41% 1037.1 hPa 0 mm - 82 W/m² -
1787780797 37.22° C 42% 1037.2 hPa 0 mm - 144 W/m² -
1787780496 37.78° C 42% 1037.2 hPa 0 mm - 102 W/m² -
1787780193 37.22° C 42% 1037.3 hPa 0 mm - 97 W/m² -
1787779888 37.22° C 42% 1037.2 hPa 0 mm - 193 W/m² -

* Rain latest hour (hover to see other rain measurements)
** Current wind speed in m/s (hover to see current wind gust speed)